#timestamp,LO_Frequency,Hit,StdDev 
1709535615.5,286047003.3,N
1709535635.4,286047003.9,N
1709535655.2,286047003.5,N
1709535675.0,286047006.0,Y
1709535676.0,286047006.0,P
1709535695.8,286047001.4,N
1709535715.6,286047001.8,N
1709535735.5,286047002.4,N
1709535755.3,286047002.2,N
1709535775.1,286047001.7,N
1709535795.9,286047002.5,N
1709535815.7,286047002.4,N
1709535835.5,286047002.6,N
1709535855.4,286047002.0,N
1709535875.2,286047002.1,N
1709535895.1,286047001.7,N
1709535896.0,286047001.7,N
1709535915.8,286047002.5,N
1709535935.6,286047000.2,N
1709535955.5,286047002.4,N
1709535975.3,286047001.3,N
1709535995.2,286047004.1,Y
1709536015.9,286046999.7,P
1709536035.7,286047002.7,N
1709536055.6,286047001.3,N
1709536075.4,286047001.5,N
1709536095.2,286047001.4,N
1709536115.1,286047004.3,Y
1709536116.0,286047004.3,P
1709536135.8,286047000.5,N
1709536155.7,286047002.4,N
1709536175.5,286047000.2,N
1709536195.3,286047000.4,N
1709536215.2,286047000.0,N
1709536235.9,286047000.2,N
1709536255.7,286046999.7,N
1709536275.6,286047000.3,N
1709536295.4,286047000.1,N
1709536315.2,286047002.1,N
1709536335.1,286047001.8,N
1709536336.0,286047001.8,N
1709536355.8,286047000.1,N
1709536375.7,286047000.4,N
1709536395.5,286047000.2,N
1709536415.3,286047000.2,N
1709536435.2,286047002.7,N
1709536455.9,286047000.5,N
1709536475.7,286046998.3,N
1709536495.6,286046999.5,N
1709536515.4,286047000.8,N
1709536535.2,286047000.1,N
1709536555.1,286046999.7,N
1709536556.0,286046999.7,N
1709536575.8,286046999.7,N
1709536595.7,286047002.7,N
1709536615.5,286046999.9,N
1709536635.3,286046999.8,N
1709536655.2,286047000.8,N
1709536675.0,286047001.0,N
1709536675.9,286047001.0,N
1709536695.7,286046999.9,N
1709536715.6,286047000.4,N
1709536735.4,286047001.0,N
1709536755.3,286046999.7,N
1709536775.1,286046999.9,N
1709536776.0,286046999.9,N
1709536795.8,286047000.3,N
1709536815.7,286047000.2,N
1709536835.5,286046999.9,N
1709536855.3,286046999.9,N
1709536875.2,286046998.5,N
1709536895.0,286046998.3,N
1709536895.9,286046998.3,N
1709536915.8,286047000.8,N
1709536935.6,286046998.4,N
1709536955.4,286047001.1,N
1709536975.3,286047000.4,N
1709536995.1,286047000.0,N
1709537015.8,286047000.8,N
1709537035.7,286046998.5,N
1709537055.5,286047000.6,N
1709537075.4,286047000.9,N
1709537095.2,286046999.1,N
1709537115.0,286046998.5,N
1709537115.9,286046998.5,N
1709537135.8,286047001.1,N
1709537155.7,286046998.4,N
1709537175.6,286046996.7,Y
1709537195.4,286046996.8,P
1709537215.2,286046997.4,N
1709537235.1,286046999.6,N
1709537236.0,286046999.6,N
1709537255.8,286046999.6,N
1709537275.7,286046997.0,N
1709537295.5,286046997.6,N
1709537315.3,286046995.4,Y
1709537335.2,286046999.0,P
1709537355.0,286047001.2,P
1709537356.0,286047001.2,N
1709537375.8,286046999.1,N
1709537395.7,286046996.5,Y
1709537415.5,286046996.5,P
1709537435.3,286046997.2,N
1709537455.2,286046996.7,N
1709537475.0,286046999.3,N
1709537475.9,286046999.3,N
1709537495.8,286046998.6,N
1709537515.6,286046999.0,N
1709537535.4,286046999.1,N
1709537555.3,286046998.7,N
1709537575.1,286046996.6,Y
1709537595.8,286046999.0,P
1709537615.7,286046996.5,P
1709537635.5,286046998.5,N
1709537655.3,286046998.3,N
1709537675.2,286046998.4,N
1709537695.0,286046999.3,N
1709537695.9,286046999.3,N
1709537715.8,286046999.4,N
1709537735.6,286046999.1,N
1709537755.4,286046998.1,N
1709537775.3,286046996.6,Y
1709537795.1,286046999.3,P
1709537815.9,286046998.9,P
1709537835.7,286047000.5,N
1709537855.5,286047000.2,N
1709537875.4,286047002.8,Y
1709537895.2,286047000.7,P
1709537915.0,286047000.9,N
1709537915.9,286047000.9,N
1709537935.8,286047000.6,N
1709537955.6,286046998.2,Y
1709537975.5,286046999.5,P
1709537995.3,286046998.3,P
1709538015.1,286046998.3,N
1709538035.9,286046998.2,N
1709538055.7,286046998.3,N
1709538075.5,286046998.7,N
1709538095.4,286046999.4,N
1709538115.2,286046998.9,N
1709538135.1,286046999.3,N
1709538136.0,286046999.3,N
1709538155.8,286046999.2,N
1709538175.6,286046998.9,N
1709538195.5,286046998.7,N
1709538215.3,286046998.5,N
1709538235.1,286046999.9,N
1709538255.9,286047000.7,N
1709538275.7,286047000.3,N
1709538295.5,286047000.4,N
1709538315.4,286047001.0,N
1709538335.2,286046999.4,N
1709538355.1,286046999.0,N
1709538356.0,286046999.0,N
1709538375.8,286047000.0,N
1709538395.6,286047001.0,N
1709538415.5,286046999.0,N
1709538435.3,286046998.4,N
1709538455.3,286046998.9,N
1709538475.1,286046998.3,N
1709538495.8,286046996.7,Y
1709538515.7,286046996.7,P
1709538535.5,286046997.6,N
1709538555.4,286046997.8,N
1709538575.2,286046996.7,Y
1709538595.0,286046998.5,P
1709538595.9,286046998.5,P
1709538615.8,286047000.8,N
1709538635.6,286046999.9,N
1709538655.5,286047000.4,N
1709538675.3,286047000.9,N
1709538695.1,286046998.1,N
1709538715.9,286047001.0,N
1709538735.7,286046998.1,N
1709538755.5,286046996.9,N
1709538775.4,286046997.5,N
1709538795.2,286046997.4,N
1709538815.0,286046996.7,N
1709538815.9,286046996.7,N
1709538835.8,286046998.6,N
1709538855.6,286046998.3,N
1709538875.5,286046998.2,N
1709538895.3,286047001.1,N
1709538915.1,286047000.8,N
1709538935.9,286046998.5,N
1709538955.7,286046998.5,N
1709538975.5,286047000.8,N
1709538995.4,286046999.0,N
1709539015.2,286046999.6,N
1709539035.1,286047001.2,N
1709539036.0,286047001.2,N
1709539055.8,286047002.7,N
1709539075.6,286047000.8,N
1709539095.5,286047000.9,N
1709539115.3,286046998.6,N
1709539135.1,286046998.7,N
1709539155.9,286046998.4,N
1709539175.8,286046998.1,N
1709539195.6,286046999.0,N
